Wind_Speed
6 6 7 7 8 7 7 6 5 5 5 4 4 4 3 3 2 2 1 0 1 2 3 4 5 5 5 5 6 6 6 7 7 7 8 8 10 10 11 11 11 12 12
6 6 6 7 7 7 6 6 5 5 5 4 4 3 3 3 2 2 2 1 2 2 3 4 5 6 6 6 7 7 8 8 8 9 9 9 10 11 11 11 11 12 13
6 6 7 7 7 7 6 6 5 5 5 5 4 3 3 3 3 3 3 3 3 3 4 5 6 6 7 7 7 8 8 9 9 10 10 10 11 11 11 12 13 13 14
7 7 7 8 8 8 7 7 7 6 6 6 6 5 4 4 4 4 4 4 4 4 5 6 7 8 8 8 9 9 10 10 10 11 11 11 12 11 11 12 13 14 14
9 9 8 9 9 9 8 8 9 8 8 7 7 6 6 5 6 6 6 6 6 6 6 7 8 9 9 10 10 10 11 12 12 12 12 13 13 13 13 13 12 13 13
11 10 10 10 11 11 10 10 10 10 10 9 9 9 8 9 8 8 8 8 8 8 8 9 9 10 11 11 11 11 12 12 13 13 13 14 14 14 14 13 13 13 13
13 13 12 12 12 13 12 12 12 12 12 11 11 11 11 11 10 10 10 10 10 10 10 10 11 12 12 12 12 13 14 13 14 14 15 15 15 16 16 15 15 15 15
15 14 14 14 14 14 14 14 14 14 14 13 13 13 13 13 13 13 12 11 11 11 12 13 13 13 13 14 14 14 14 15 15 16 17 16 16 16 16 16 16 16 16
17 16 16 16 16 16 16 15 15 16 17 16 15 15 14 14 14 14 14 13 13 14 14 14 15 15 15 15 15 16 16 17 17 18 18 18 17 17 17 16 16 17 17
18 17 17 17 18 18 17 17 17 17 18 18 18 17 17 17 16 16 16 15 15 15 15 16 17 17 18 17 17 18 18 19 19 19 18 18 18 18 18 18 18 18 19
19 19 18 18 19 19 19 19 19 19 20 20 20 19 19 18 18 18 18 17 17 17 17 18 18 18 18 18 18 18 18 18 18 19 20 20 20 19 19 19 19 20 20
20 20 20 20 20 21 21 21 21 21 21 21 21 21 21 21 21 20 20 18 18 18 18 18 18 19 19 19 18 18 19 20 20 20 21 21 21 21 21 21 21 22 22
21 21 21 21 21 22 22 22 22 22 22 23 23 23 23 23 22 22 21 20 19 19 19 19 19 19 20 20 20 20 20 21 21 21 22 23 23 23 23 23 23 23 23
22 22 23 23 23 23 23 23 24 24 24 24 23 23 23 23 23 23 22 21 21 21 22 21 21 20 20 21 21 21 22 22 22 22 22 23 24 24 24 25 25 25 25
24 25 25 25 25 25 25 25 26 26 25 24 24 24 24 24 24 24 23 23 23 22 22 22 23 23 23 22 23 23 23 23 23 24 24 24 25 25 26 26 27 28 28
25 25 26 26 26 26 25 25 25 25 25 25 25 25 25 25 25 25 24 25 24 24 24 24 25 25 25 25 25 25 25 25 25 25 26 26 27 27 28 29 30 30 30
27 27 27 27 27 27 27 26 27 27 26 26 27 26 27 27 27 26 26 26 26 25 26 26 26 27 27 27 27 27 27 27 27 27 28 28 28 29 30 31 32 31 31
27 27 28 28 28 28 28 28 28 28 28 28 29 29 28 28 28 28 28 28 28 28 27 28 28 29 29 29 29 30 29 29 29 29 29 30 30 30 31 32 32 32 33
28 29 29 29 28 28 29 29 29 29 29 29 30 30 31 30 30 30 30 30 30 30 30 30 30 30 30 31 31 32 32 32 31 31 31 31 31 31 31 32 33 33 33
29 29 30 30 29 29 29 30 30 30 31 31 32 31 32 32 32 32 32 31 30 31 32 32 32 32 32 32 32 33 33 32 32 32 32 32 32 32 32 33 34 34 34
30 30 30 31 30 30 31 31 31 31 32 32 32 32 33 33 33 32 32 32 32 32 32 32 32 33 34 34 33 34 34 34 34 33 34 34 33 33 34 34 34 34 35
30 31 31 32 32 32 32 32 32 32 32 32 32 32 33 34 34 33 32 32 33 33 32 33 34 35 35 35 34 34 34 35 35 35 35 35 34 34 35 35 35 35 35
32 31 31 32 32 32 32 32 32 33 32 32 32 33 33 34 33 33 33 33 33 32 33 33 33 34 35 35 35 35 35 36 36 36 36 36 36 35 36 36 36 36 36
32 31 31 31 32 32 32 31 31 31 31 32 32 32 32 33 32 32 32 32 32 32 32 32 33 34 35 35 35 36 35 36 35 35 36 36 36 37 36 36 36 36 37
32 32 31 31 31 31 31 31 31 31 30 30 30 30 31 31 32 32 32 32 31 31 31 32 33 33 33 33 34 34 34 35 35 35 36 37 37 37 37 37 36 36 37
31 31 31 31 31 31 31 31 31 29 29 30 29 28 29 30 30 31 31 31 30 30 31 31 31 31 32 32 32 33 33 33 34 35 36 36 37 37 37 37 37 37 38
Wind_Direction
5 7 9 14 12 10 11 16 21 20 25 26 30 29 31 40 44 35 15 316 251 240 239 234 237 242 242 243 245 242 248 252 264 268 269 270 266 263 266 266 266 261 258
342 355 0 2 359 358 359 357 358 359 5 7 2 359 3 356 355 356 347 324 291 264 254 246 248 252 257 254 252 251 254 262 268 271 270 276 273 266 267 267 268 264 263
322 330 337 341 341 343 344 339 339 337 337 340 336 336 340 332 328 329 319 312 306 286 275 266 263 265 267 264 267 258 254 262 265 267 270 272 274 268 266 267 270 267 261
301 309 319 325 324 325 325 323 320 319 317 320 319 309 318 317 311 311 306 301 295 289 284 280 275 272 270 272 273 267 262 264 265 267 269 271 273 272 268 268 269 266 262
286 294 303 308 311 310 309 312 315 309 306 306 308 303 299 301 298 298 293 289 288 286 286 289 285 276 273 272 274 271 268 268 268 270 271 271 271 270 270 272 272 268 266
278 284 290 296 299 299 302 307 306 307 301 298 295 297 294 293 293 290 289 285 282 282 282 287 288 284 278 274 272 271 272 271 273 272 274 273 272 275 274 275 276 275 274
276 281 283 290 293 294 297 300 300 300 294 292 289 291 289 288 288 287 286 281 282 279 280 284 286 287 284 278 275 272 271 272 275 274 274 273 271 271 273 273 272 272 273
271 276 279 285 287 287 291 293 294 293 291 286 288 288 285 283 280 281 285 280 279 280 285 284 285 285 285 283 281 276 273 271 273 274 273 273 270 269 271 272 272 272 273
267 269 274 281 285 286 288 288 288 289 289 284 286 285 283 281 280 280 281 282 285 284 284 284 285 284 283 282 283 278 276 274 274 275 271 271 271 270 271 272 273 273 274
264 266 270 277 282 285 285 283 285 288 288 281 280 282 281 279 280 280 281 281 284 285 285 284 285 283 281 280 280 281 279 278 277 274 272 270 269 270 269 269 272 273 273
261 263 267 274 279 280 280 280 281 286 287 282 280 280 279 278 279 281 279 279 281 282 283 282 282 281 282 282 281 280 280 281 279 277 274 272 269 268 268 269 271 273 273
259 261 266 270 273 276 275 276 279 282 283 281 280 282 278 275 278 279 278 277 279 281 284 283 280 281 282 283 282 282 282 281 278 277 276 274 272 270 270 269 271 274 275
259 261 264 267 270 272 271 271 275 278 280 281 281 279 277 275 279 282 281 278 279 281 284 283 281 279 280 281 282 282 282 282 280 278 276 274 274 271 270 272 272 274 276
258 260 263 267 269 269 268 269 271 275 277 278 278 278 278 278 279 281 280 279 281 281 281 280 278 278 279 280 281 282 282 282 280 280 278 276 275 274 272 272 273 275 277
260 261 262 266 269 269 268 268 271 272 274 276 278 280 279 278 278 279 279 278 279 280 281 278 275 276 278 280 281 282 282 280 279 279 279 278 277 276 275 275 275 277 278
261 263 263 265 267 267 268 268 269 271 272 273 274 277 279 279 279 280 281 279 277 278 279 277 275 274 275 277 279 280 280 279 279 279 279 279 278 276 276 276 277 278 278
261 263 264 265 266 268 267 268 269 269 270 271 272 274 276 277 277 278 279 278 277 278 278 277 275 275 275 276 278 280 279 277 278 278 278 278 278 278 277 277 277 279 280
260 261 263 265 267 269 269 270 269 269 269 269 271 274 277 276 276 278 278 278 275 275 275 274 274 274 275 276 277 277 277 277 278 278 278 279 280 280 279 278 278 279 280
260 261 263 264 265 266 267 268 269 270 270 269 270 273 275 276 276 276 277 277 277 275 273 273 273 274 274 275 276 277 277 276 277 277 277 278 278 279 279 279 279 278 278
260 262 264 265 265 267 268 267 269 270 270 269 269 271 273 275 277 276 277 277 277 276 275 274 274 274 274 274 275 276 276 276 276 276 276 276 277 277 278 279 279 279 279
259 261 264 267 268 268 269 269 269 270 269 269 269 270 272 273 275 277 276 276 277 276 275 275 276 276 275 275 276 277 277 276 277 277 276 276 276 276 276 277 278 278 278
259 262 264 266 267 268 268 269 269 268 268 267 267 268 270 272 273 275 277 277 278 276 276 277 277 278 277 276 277 277 277 276 276 276 276 276 275 275 276 277 278 278 278
259 261 263 265 266 267 267 267 269 268 268 268 267 267 269 270 272 274 276 278 278 277 277 277 278 278 279 278 277 277 277 277 277 277 277 276 277 277 277 278 278 277 277
258 260 262 264 265 266 266 267 268 269 269 269 268 268 269 270 271 273 275 276 275 276 278 278 279 279 278 276 276 276 276 276 277 277 277 277 278 279 278 278 277 278 277
259 260 261 262 263 264 267 267 268 269 268 268 269 269 269 270 271 272 274 275 274 276 278 279 280 281 280 277 275 275 275 276 277 278 278 278 279 279 279 278 277 277 277
258 259 261 262 264 265 266 269 268 268 267 267 268 270 271 271 271 272 274 274 274 276 278 280 281 281 281 278 275 275 276 276 277 278 279 279 280 280 279 278 278 277 276
Height
5908 5907 5906 5905 5904 5903 5902 5901 5900 5899 5897 5896 5895 5894 5894 5893 5893 5892 5892 5892 5892 5891 5891 5892 5892 5891 5891 5891 5891 5892 5892 5892 5892 5892 5892 5892 5891 5891 5891 5891 5891 5891 5891
5908 5907 5906 5905 5904 5903 5902 5901 5900 5899 5898 5897 5896 5895 5894 5893 5893 5892 5892 5892 5891 5891 5891 5891 5891 5890 5890 5890 5890 5890 5890 5890 5890 5890 5890 5890 5890 5889 5889 5889 5889 5889 5889
5908 5907 5906 5905 5904 5903 5902 5901 5900 5899 5898 5897 5896 5895 5893 5893 5892 5892 5892 5891 5891 5890 5890 5890 5889 5889 5889 5889 5888 5888 5888 5889 5889 5888 5888 5888 5888 5887 5887 5886 5886 5886 5886
5907 5906 5905 5904 5903 5902 5901 5900 5899 5898 5897 5896 5895 5894 5893 5892 5892 5891 5891 5890 5890 5890 5889 5888 5888 5888 5887 5887 5887 5886 5886 5886 5886 5886 5886 5886 5885 5885 5884 5884 5883 5883 5883
5905 5904 5904 5903 5902 5901 5900 5899 5898 5897 5896 5895 5894 5893 5892 5891 5891 5890 5889 5889 5888 5888 5888 5887 5886 5886 5885 5885 5885 5884 5884 5884 5884 5884 5883 5883 5882 5882 5881 5881 5881 5880 5880
5903 5902 5902 5901 5900 5899 5899 5898 5897 5896 5895 5894 5893 5893 5892 5890 5890 5889 5888 5887 5887 5886 5886 5885 5884 5884 5883 5883 5882 5881 5881 5881 5881 5880 5880 5880 5879 5879 5878 5878 5878 5878 5877
5900 5899 5899 5898 5898 5897 5896 5895 5894 5894 5893 5892 5891 5890 5889 5889 5888 5887 5886 5885 5884 5884 5883 5882 5882 5881 5880 5880 5879 5879 5878 5878 5878 5877 5877 5876 5876 5876 5875 5875 5875 5874 5874
5896 5896 5896 5895 5895 5894 5893 5893 5892 5891 5890 5889 5888 5887 5886 5886 5885 5884 5883 5882 5882 5881 5880 5880 5879 5878 5877 5876 5876 5875 5874 5874 5874 5874 5873 5872 5872 5872 5872 5871 5871 5871 5870
5892 5892 5892 5891 5891 5891 5890 5889 5889 5888 5886 5885 5885 5884 5883 5883 5882 5881 5881 5880 5879 5878 5877 5876 5875 5875 5874 5873 5872 5871 5871 5871 5870 5869 5869 5869 5868 5868 5868 5867 5867 5867 5866
5888 5888 5888 5888 5887 5886 5886 5886 5885 5884 5882 5881 5881 5880 5880 5879 5878 5878 5877 5876 5875 5874 5873 5872 5871 5870 5870 5869 5869 5868 5867 5866 5865 5865 5865 5864 5864 5863 5863 5862 5862 5862 5861
5882 5883 5883 5883 5883 5882 5882 5881 5881 5879 5878 5877 5876 5876 5875 5874 5874 5873 5872 5872 5871 5870 5869 5868 5867 5866 5865 5864 5864 5863 5862 5861 5861 5860 5860 5859 5859 5858 5858 5857 5857 5857 5856
5877 5877 5878 5878 5877 5877 5876 5876 5875 5875 5874 5872 5872 5871 5870 5870 5869 5868 5868 5867 5866 5865 5864 5863 5862 5861 5860 5859 5859 5858 5857 5856 5855 5854 5854 5854 5853 5853 5852 5852 5852 5851 5851
5871 5871 5872 5872 5872 5872 5871 5871 5870 5869 5869 5867 5866 5866 5865 5864 5864 5863 5862 5862 5861 5860 5859 5858 5857 5856 5855 5854 5853 5852 5851 5850 5849 5848 5848 5848 5847 5847 5847 5846 5846 5845 5845
5864 5865 5865 5866 5866 5865 5865 5865 5864 5864 5863 5862 5861 5860 5859 5858 5858 5857 5856 5856 5855 5855 5853 5852 5851 5850 5850 5849 5848 5846 5845 5844 5843 5843 5842 5841 5841 5841 5840 5840 5840 5839 5838
5858 5858 5859 5859 5859 5858 5858 5858 5858 5857 5856 5855 5854 5854 5853 5853 5852 5851 5850 5849 5848 5848 5847 5846 5846 5845 5844 5843 5842 5841 5840 5838 5837 5836 5836 5835 5834 5834 5834 5833 5832 5831 5831
5850 5851 5851 5851 5851 5851 5851 5851 5850 5850 5849 5849 5848 5847 5847 5846 5845 5844 5843 5842 5841 5841 5840 5840 5839 5838 5838 5837 5835 5834 5833 5832 5831 5830 5829 5828 5828 5827 5826 5826 5825 5824 5823
5842 5843 5843 5843 5843 5843 5843 5843 5843 5843 5842 5841 5841 5840 5839 5839 5838 5838 5837 5836 5835 5834 5833 5833 5832 5831 5830 5829 5828 5827 5826 5825 5824 5823 5822 5821 5820 5819 5818 5818 5817 5816 5814
5834 5834 5835 5835 5835 5835 5835 5835 5835 5834 5834 5833 5833 5832 5831 5831 5831 5830 5829 5828 5827 5827 5826 5825 5824 5823 5822 5821 5820 5819 5818 5817 5816 5815 5814 5813 5812 5811 5810 5809 5808 5807 5806
5825 5825 5826 5826 5826 5827 5827 5827 5826 5826 5826 5825 5825 5824 5824 5823 5823 5822 5821 5820 5819 5818 5817 5816 5815 5815 5814 5812 5811 5810 5809 5808 5807 5806 5805 5804 5804 5803 5801 5800 5799 5798 5797
5816 5816 5817 5817 5817 5818 5818 5818 5818 5817 5817 5817 5816 5816 5815 5814 5814 5813 5812 5811 5810 5809 5808 5807 5806 5805 5804 5803 5802 5800 5799 5799 5798 5797 5796 5795 5794 5793 5792 5791 5789 5788 5787
5807 5808 5808 5808 5808 5809 5809 5809 5808 5808 5807 5807 5807 5807 5806 5805 5805 5804 5802 5801 5800 5799 5798 5797 5796 5795 5794 5793 5792 5791 5790 5789 5788 5787 5786 5785 5784 5783 5782 5780 5779 5778 5777
5798 5799 5799 5799 5799 5799 5799 5799 5798 5798 5797 5797 5797 5797 5797 5796 5795 5794 5793 5792 5791 5789 5788 5788 5787 5785 5784 5783 5782 5781 5780 5779 5778 5777 5776 5775 5774 5773 5772 5770 5769 5768 5766
5789 5789 5789 5789 5789 5789 5789 5789 5788 5788 5787 5787 5787 5787 5787 5786 5785 5784 5783 5782 5781 5780 5779 5778 5777 5776 5774 5773 5772 5771 5770 5769 5768 5767 5766 5764 5763 5762 5761 5760 5758 5757 5755
5779 5780 5780 5780 5780 5779 5779 5779 5779 5778 5777 5777 5777 5776 5776 5776 5775 5774 5773 5773 5772 5771 5770 5769 5767 5766 5765 5763 5762 5761 5760 5759 5757 5756 5755 5754 5753 5751 5750 5749 5747 5745 5744
5770 5770 5770 5770 5770 5770 5770 5770 5769 5768 5768 5768 5767 5766 5766 5766 5765 5765 5764 5763 5762 5761 5760 5759 5758 5756 5755 5753 5752 5750 5750 5748 5748 5746 5745 5743 5742 5741 5739 5737 5736 5734 5733
5760 5761 5761 5761 5761 5761 5761 5760 5760 5759 5758 5758 5757 5756 5756 5756 5756 5755 5755 5754 5753 5752 5751 5750 5748 5747 5745 5744 5742 5741 5740 5738 5737 5736 5734 5733 5731 5730 5728 5726 5725 5723 5721